Moline, IL
on Saturday, July 27, 2013

Saturday
Previous Day Next Day
Daily Summary
 ActualAverageRecord
Temperature
Mean Temperature °F 75°F  
Max Temperature 67°F 85°F 105°F (1930)
Min Temperature 55°F 65°F 50°F (1962)
Degree Days
Heating Degree Days 4 0  
Month to date heating degree days 4 0  
Since 1 June heating degree days 31 19  
Since 1 July heating degree days 4 0  
Cooling Degree Days 0 10  
Month to date cooling degree days 250 286  
Year to date cooling degree days 543 576  
Since 1 June cooling degree days 453 500  
Growing Degree Days12 (Base °F )  
Moisture
Dew Point 50°F   
Average Humidity 69    
Maximum Humidity 86    
Minimum Humidity 52    
Precipitation
Precipitation 0.00 in 0.12 in 2.86 in (1875)
Month to date precipitation 1.88 3.80  
Year to date precipitation 31.17 22.15  
Since 1 June precipitation 8.02 8.29  
Snow
Snow 0.00 in 0.00 in in ()
Month to date snowfall 0.0 0.0  
Since 1 June snowfall 0.0 0.0  
Since 1 July snowfall 0.0 0.0  
Snow Depth 0.00 in   
Wind
Wind Speed 10 mph   
Max Wind Speed 20 mph   
Max Gust Speed 25 mph   
Visibility 10 miles   
Events     

Key: T is trace of precipitation, MM is missing value
Source: NWS Daily Summary
Time(CDT)TemperatureDew PointHumidity Pressure Visibility Wind DirectionWind SpeedGust SpeedPrecipitationEvents Conditions
12:52 AM 62.1°F 55.9°F 80% 29.96 in 10.0 miles WNW 5.8 mph - N/A   Clear
1:52 AM 62.1°F 55.0°F 78% 29.95 in 10.0 miles NW 8.1 mph - N/A   Clear
2:52 AM 61.0°F 55.0°F 81% 29.94 in 10.0 miles NW 9.2 mph - N/A   Clear
3:52 AM 59.0°F 54.0°F 83% 29.95 in 10.0 miles NW 11.5 mph - N/A   Clear
4:52 AM 57.9°F 54.0°F 87% 29.96 in 10.0 miles NW 9.2 mph - N/A   Partly Cloudy
5:52 AM 57.9°F 53.1°F 84% 29.97 in 10.0 miles NW 11.5 mph - N/A   Overcast
6:52 AM 57.0°F 52.0°F 83% 29.99 in 10.0 miles NW 9.2 mph - N/A   Mostly Cloudy
7:52 AM 57.0°F 51.1°F 81% 30.00 in 10.0 miles NW 11.5 mph 17.3 mph N/A   Partly Cloudy
8:50 AM 60.8°F 51.8°F 72% 30.00 in 10.0 miles WNW 10.4 mph 16.1 mph N/A   Mostly Cloudy
8:52 AM 61.0°F 52.0°F 72% 30.00 in 10.0 miles WNW 11.5 mph - N/A   Mostly Cloudy
9:52 AM 60.1°F 50.0°F 69% 29.99 in 10.0 miles NW 11.5 mph - N/A   Overcast
9:57 AM 60.8°F 50.0°F 68% 29.99 in 10.0 miles NW 12.7 mph 19.6 mph N/A   Mostly Cloudy
10:52 AM 62.1°F 50.0°F 65% 29.99 in 10.0 miles North 6.9 mph - N/A   Overcast
11:23 AM 62.6°F 48.2°F 59% 29.99 in 10.0 miles WNW 16.1 mph 23.0 mph N/A   Overcast
11:52 AM 62.1°F 48.0°F 60% 29.99 in 10.0 miles NW 13.8 mph - N/A   Overcast
12:52 PM 63.0°F 46.0°F 54% 29.99 in 10.0 miles NW 15.0 mph 21.9 mph N/A   Overcast
1:52 PM 64.0°F 46.9°F 54% 29.99 in 10.0 miles NW 12.7 mph - N/A   Overcast
2:52 PM 66.9°F 48.0°F 51% 29.98 in 10.0 miles NW 12.7 mph 21.9 mph N/A   Mostly Cloudy
3:52 PM 64.9°F 46.0°F 50% 29.98 in 10.0 miles West 15.0 mph 24.2 mph N/A   Overcast
4:52 PM 64.0°F 46.0°F 52% 29.97 in 10.0 miles WNW 17.3 mph 20.7 mph N/A   Overcast
5:52 PM 64.9°F 46.0°F 50% 29.97 in 10.0 miles WNW 12.7 mph - N/A   Overcast
6:52 PM 64.0°F 46.0°F 52% 29.96 in 10.0 miles WNW 12.7 mph - N/A   Mostly Cloudy
7:52 PM 63.0°F 46.0°F 54% 29.96 in 10.0 miles NW 8.1 mph - N/A   Overcast
8:52 PM 61.0°F 48.9°F 64% 29.96 in 10.0 miles WNW 6.9 mph - N/A   Overcast
9:52 PM 59.0°F 46.0°F 62% 29.98 in 10.0 miles NW 6.9 mph - N/A   Clear
10:52 PM 60.1°F 46.0°F 60% 29.97 in 10.0 miles WNW 6.9 mph - N/A   Overcast
11:52 PM 55.0°F 46.9°F 74% 29.97 in 10.0 miles SW 4.6 mph - N/A   Partly Cloudy
Astronomy
Sunrise:05:52 AM (CDT) Moon Rise:11:06 PM (CDT)7/27
Sunset:08:24 PM (CDT) Moon Set:11:37 AM (CDT)7/27
Moon Phase
Jul. 27 Jul. 29 Aug. 06 Aug. 14 Aug. 21

Copyright © 2017 The Weather Underground, Inc.















  Today is Tuesday, Nov. 22, the 327th day of 2016. There are 39 days left in the year.
1866 -- 150 years ago: Free luncheon is served at Phil Hein's Saloon every morning at 10 o'clock.
1891 -- 125 years ago: Bige Bickford was injured as he was coupling cars in the Rock Island Lines yard.
1916 -- 100 years ago: Clarence Granlund was elected president of the Lyceum at Augustana College.
1941 -- 75 years ago: Alice Schall, teacher at Grant School, supervised packing of Thanksgiving boxes for needy families.
1966 -- 50 years ago: The Rev. Lowell Campbell, pastor of the Milan Presbyterian Church, led the members of the congregation in a ground-breaking ceremony yesterday at the site of the new church one mile south of Andalusia Road on U.S. 67. The building will cost $285,000 and will be completed next fall.
1991 -- 25 years ago: Construction of a 200-room, $13.5 million hotel on the east end of the Moline civic center site will begin next spring, according to an agreement that was to be considered this morning by the Quad City Civic Center Authority.